Chapel Hill, NC

5:53 AM EDT on October 17, 2017 (GMT -0400)
Williams

Weather History for KIGX - January, 2013

Change the Weather History Date:

Tuesday, January 8, 2013

  Actual Average Record
Temperature  
Mean Temperature 42 °F -  
Max Temperature 55 °F 50 °F 70 °F (2008)
Min Temperature 30 °F 28 °F 9 °F (1970)
Degree Days  
Heating Degree Days 22    
Moisture  
Dew Point 33 °F    
Average Humidity 73    
Maximum Humidity 92    
Minimum Humidity 45    
Precipitation  
Precipitation 0.00 in - - ()
Sea Level Pressure  
Sea Level Pressure 30.42 in    
Wind  
Wind Speed 0 mph (North)    
Max Wind Speed 4 mph    
Max Gust Speed -    
Visibility 10 miles    
Events      
Averages and records for this station are not official NWS values.
T = Trace of Precipitation, MM = Missing Value Source: NWS Daily Summary

Daily Weather History Graph

Daily Weather History Graph

Search for Another Location

Airport or City:

Trip Planner

Search our weather history database for the weather conditions in past years. The results will help you decide how hot, cold, wet, or windy it might be!

Date:

Astronomy

Jan. 08, 2013 Rise Set
Actual Time 7:27 AM EST 5:19 PM EST
Civil Twilight 6:58 AM EST 5:47 PM EST
Nautical Twilight 6:27 AM EST 6:19 PM EST
Astronomical Twilight 5:56 AM EST 6:50 PM EST
Moon 3:58 AM EST (1/8) 2:19 PM EST (1/8)
Length of Visible Light 10h 48m
Length of Day
9h 52m
Waning Crescent, 14% of the Moon is Illuminated
Jan 8
Waning Crescent
Jan 11
New
Jan 18
First Quarter
Jan 26
Full
Feb 3
Last Quarter

Hourly Weather History & Observations

Time (EST) Temp. Dew Point Humidity Pressure Visibility Wind Dir Wind Speed Gust Speed Precip Events Conditions
12:56 AM 33.1 °F 28.0 °F 82% 30.43 in 10.0 mi Calm Calm - N/A   Clear
1:56 AM 30.9 °F 28.0 °F 89% 30.43 in 10.0 mi Calm Calm - N/A   Clear
2:56 AM 30.9 °F 28.0 °F 89% 30.43 in 9.0 mi Calm Calm - N/A   Clear
3:56 AM 30.0 °F 27.0 °F 88% 30.42 in 8.0 mi Calm Calm - N/A   Partly Cloudy
4:56 AM 30.0 °F 28.0 °F 92% 30.40 in 8.0 mi Calm Calm - N/A   Mostly Cloudy
5:56 AM 32.0 °F 28.9 °F 88% 30.43 in 10.0 mi Calm Calm - N/A   Overcast
6:56 AM 34.0 °F 30.9 °F 89% 30.42 in 10.0 mi Calm Calm - N/A   Overcast
7:56 AM 36.0 °F 30.9 °F 82% 30.43 in 10.0 mi Calm Calm - N/A   Overcast
8:56 AM 37.9 °F 33.1 °F 83% 30.47 in 10.0 mi Calm Calm - N/A   Overcast
9:56 AM 41.0 °F 32.0 °F 70% 30.48 in 10.0 mi Calm Calm - N/A   Overcast
10:56 AM 44.1 °F 34.0 °F 68% 30.47 in 10.0 mi Calm Calm - N/A   Overcast
11:56 AM 46.0 °F 33.1 °F 61% 30.45 in 10.0 mi Calm Calm - N/A   Overcast
12:56 PM 50.0 °F 33.1 °F 52% 30.40 in 10.0 mi Calm Calm - N/A   Scattered Clouds
1:56 PM 53.1 °F 32.0 °F 45% 30.39 in 10.0 mi Variable 3.5 mph - N/A   Clear
2:56 PM 54.0 °F 33.1 °F 45% 30.38 in 10.0 mi Calm Calm - N/A   Clear
3:56 PM 55.0 °F 34.0 °F 45% 30.38 in 10.0 mi Calm Calm - N/A   Clear
4:56 PM 52.0 °F 36.0 °F 54% 30.40 in 10.0 mi Calm Calm - N/A   Mostly Cloudy
5:56 PM 46.9 °F 37.9 °F 71% 30.40 in 10.0 mi Calm Calm - N/A   Mostly Cloudy
6:56 PM 46.0 °F 37.0 °F 71% 30.40 in 10.0 mi Calm Calm - N/A   Mostly Cloudy
7:56 PM 46.0 °F 37.9 °F 73% 30.41 in 10.0 mi Calm Calm - N/A   Overcast
8:56 PM 44.1 °F 37.9 °F 79% 30.41 in 10.0 mi Calm Calm - N/A   Mostly Cloudy
9:56 PM 45.0 °F 39.0 °F 80% 30.40 in 10.0 mi Calm Calm - N/A   Overcast
10:56 PM 45.0 °F 39.0 °F 80% 30.40 in 10.0 mi Calm Calm - N/A   Overcast
11:56 PM 44.1 °F 37.9 °F 79% 30.40 in 10.0 mi Calm Calm - N/A   Overcast